Location: Melizzano
(41.1500°N, 14.5000°E)
Time: 08:22:46
(UTC+00:00)

Sich 1 - Pass Details

Date: 11 May 2021
Orbit: 595 x 624 km, 82.5° (Epoch: 15 June)

Event Time Altitude Azimuth Distance (km) Brightness Sun altitude
Rises 19:39:47 0° 346° (NNW) 2,868 7.4 -15.0°
Reaches altitude 10° 19:42:02 10° 342° (NNW) 1,964 6.6 -15.3°
Maximum altitude 19:46:15 51° 266° (W) 775 3.8 -15.9°
Enters shadow 19:50:18 11° 192° (SSW) 1,904 5.3 -16.5°
